Погода в Бланесе

Испания     41°40′44″N   2°46′50″E
темп.,
°C
ветер,
м/с
пор.,
м/с
влажн.,
%
обл.,
%
осадки,
мм/ч
давл.,
гПа
погр.,
м
9 мая, вс
вс923:00+14ююз2392100 0.0 101561
02:00+14ююз2285100 0.0 101418
05:00+13ююз1187100 0.0 101311
08:00+15вюв1185100 0.0 101255
11:00+20юв346239 0.0 1011634
14:00+22юв4759100 0.0 1009870
17:00+21юв3468100 0.0 1006638
20:00+18ю2685100 0.0 1007326
10 мая, пн
пн1023:00+15юз1289100 0.0 100815
02:00+14зюз119094 0.0 100819
05:00+14зюз119026 0.0 100712
08:00+15с1181100 0.0 100825
11:00+18в1166100 0.0 1009513
14:00+19ю4659100 0.1 1009766
17:00+20ю585743 0.0 10071162
20:00+16ююз59740 0.0 1008707
11 мая, вт
вт1123:00+13ююз389297 0.0 1009326
02:00+12зюз228999 0.1 100838
05:00+11юз22863 0.1 100732
08:00+14сз1271100 0.1 100773
11:00+18вюв445828 0.1 10091214
14:00+16юв66696 3.6 1011932
17:00+9ссв499096 2.8 1014366
20:00+12с117517 2.8 1015278
12 мая, ср
ср1223:00+9з11885 0.0 101735
02:00+9зсз118695 0.0 101721
05:00+8ссз228799 0.0 101624
08:00+10с2378100 0.0 1016105
11:00+17ююв225589 0.0 10151157
14:00+19ю574384 0.1 10121637
17:00+18ю565299 0.0 1010475
20:00+15с7116968 0.1 1012959
13 мая, чт
чт1323:00+11с228532 0.1 101333
02:00+10сз228185 0.1 101323
05:00+9зсз227819 0.0 101322
08:00+12с127197 0.0 1013103
11:00+11всв249095 0.8 1013259
14:00+13вюв258294 1.1 1013600
17:00+15ююв337165 0.0 1011782
20:00+14вюв237999 0.0 1010482